TOM63J EGFF-LGKR

Flight info

Callsign TOM63J
Flight time N/A
Altitude 23000
Route LEKCI DCT YORQI L607 NUCHU/N0453F350 L607 KONAN DCT KOK DCT SISGA DCT KOMOB DCT PITES DCT EDISA DCT PICWI DCT UTABA DCT BEMKI DCT ELMEM DCT DIRAB DCT VESAL DCT PEVAL DCT EBITA DCT SPL DCT TIGRA
Aircraft B738/M-SDFGHIJ1RWXYZ/LB1

Departure

Time N/A
Airport Cardiff International Airport (EGFF)

Arrival

Time 2026-05-04 12:11
Airport Corfu Ioannis Kapodistrias International Airport (LGKR)
Time Latitude Longitude Altitude Speed Heading
2026-05-04 10:51 45.67001 12.74789 35103 ft 468 kts 136°
2026-05-04 10:52 45.64680 12.78051 35105 ft 468 kts 136°
2026-05-04 10:52 45.60021 12.84585 35103 ft 469 kts 136°
2026-05-04 10:54 45.41389 13.10559 35116 ft 469 kts 136°
2026-05-04 10:56 45.23452 13.37466 35120 ft 470 kts 129°
2026-05-04 10:57 45.19304 13.44579 35121 ft 471 kts 129°
2026-05-04 10:57 45.15085 13.51694 35127 ft 471 kts 129°
2026-05-04 10:58 45.10838 13.58786 35130 ft 472 kts 129°
2026-05-04 10:58 45.06607 13.65824 35139 ft 472 kts 129°
2026-05-04 10:59 45.02341 13.72907 35136 ft 473 kts 129°
2026-05-04 10:59 44.98066 13.79992 35134 ft 474 kts 129°
2026-05-04 11:00 44.93782 13.87072 35135 ft 474 kts 129°
2026-05-04 11:02 44.76621 14.15261 35131 ft 474 kts 129°
2026-05-04 11:05 44.44076 14.67962 35150 ft 478 kts 129°
2026-05-04 11:06 44.39699 14.74979 35153 ft 478 kts 129°
2026-05-04 11:06 44.35408 14.82094 35151 ft 477 kts 126°
2026-05-04 11:10 44.07378 15.31649 35158 ft 477 kts 126°
2026-05-04 11:12 43.90788 15.60425 35158 ft 477 kts 127°
2026-05-04 11:12 43.86625 15.67602 35152 ft 477 kts 127°
2026-05-04 11:13 43.82484 15.74722 35149 ft 476 kts 127°
2026-05-04 11:13 43.78322 15.81862 35147 ft 476 kts 127°
2026-05-04 11:14 43.77620 15.83064 35147 ft 476 kts 127°
2026-05-04 11:16 43.57531 16.17269 35155 ft 474 kts 127°
2026-05-04 11:16 43.53371 16.24306 35161 ft 473 kts 127°
2026-05-04 11:17 43.48919 16.31004 35152 ft 476 kts 139°
2026-05-04 11:19 43.26284 16.49936 35146 ft 478 kts 148°
2026-05-04 11:19 43.20586 16.54649 35152 ft 479 kts 148°
2026-05-04 11:20 43.14861 16.59374 35154 ft 480 kts 148°
2026-05-04 11:20 43.09174 16.64056 35159 ft 480 kts 148°
2026-05-04 11:22 42.86179 16.82872 35151 ft 483 kts 148°
2026-05-04 11:23 42.80400 16.87575 35153 ft 483 kts 148°
2026-05-04 11:25 42.60189 17.03940 35157 ft 484 kts 148°
2026-05-04 11:25 42.54397 17.08608 35156 ft 484 kts 148°
2026-05-04 11:27 42.28320 17.29495 35153 ft 485 kts 148°
2026-05-04 11:28 42.22505 17.34125 35152 ft 485 kts 148°
2026-05-04 11:28 42.16676 17.38757 35163 ft 486 kts 148°
2026-05-04 11:29 42.10886 17.43347 35156 ft 486 kts 149°
2026-05-04 11:29 42.05045 17.47968 35158 ft 487 kts 149°
2026-05-04 11:33 41.63908 17.80232 35157 ft 492 kts 149°
2026-05-04 11:33 41.60951 17.82535 35050 ft 491 kts 150°
2026-05-04 11:33 41.58000 17.84829 35090 ft 490 kts 150°
2026-05-04 11:34 41.52112 17.89397 35164 ft 489 kts 150°
2026-05-04 11:34 41.46212 17.93964 35164 ft 490 kts 150°
2026-05-04 11:35 41.40310 17.98524 35159 ft 491 kts 150°
2026-05-04 11:35 41.34434 18.03054 35155 ft 491 kts 151°
2026-05-04 11:36 41.28500 18.07621 35150 ft 491 kts 151°
2026-05-04 11:36 41.22576 18.12169 35164 ft 491 kts 151°
2026-05-04 11:37 41.16675 18.16689 35160 ft 494 kts 151°
2026-05-04 11:37 41.10697 18.21260 35159 ft 496 kts 151°
2026-05-04 11:38 41.04704 18.25832 35156 ft 497 kts 151°
2026-05-04 11:38 40.98733 18.30378 35156 ft 498 kts 151°
2026-05-04 11:39 40.92718 18.34948 35157 ft 498 kts 151°
2026-05-04 11:40 40.74806 18.48500 34735 ft 479 kts 151°
2026-05-04 11:41 40.71931 18.50668 34417 ft 471 kts 151°
2026-05-04 11:41 40.69109 18.52794 34001 ft 465 kts 151°
2026-05-04 11:41 40.66305 18.54902 33465 ft 463 kts 151°
2026-05-04 11:41 40.63512 18.57000 32933 ft 460 kts 151°
2026-05-04 11:42 40.60741 18.59079 32407 ft 457 kts 151°
2026-05-04 11:42 40.57961 18.61163 31694 ft 460 kts 150°
2026-05-04 11:42 40.55176 18.63249 31013 ft 462 kts 150°
2026-05-04 11:42 40.52404 18.65324 30353 ft 463 kts 150°
2026-05-04 11:43 40.49588 18.67430 29427 ft 468 kts 150°
2026-05-04 11:43 40.46735 18.69564 28487 ft 472 kts 150°
2026-05-04 11:43 40.43871 18.71710 27581 ft 475 kts 149°
2026-05-04 11:43 40.41013 18.73843 26700 ft 478 kts 149°
2026-05-04 11:44 40.38108 18.75988 25845 ft 479 kts 151°
2026-05-04 11:44 40.35122 18.77959 25012 ft 480 kts 153°
2026-05-04 11:44 40.32100 18.79840 24196 ft 480 kts 154°
2026-05-04 11:44 40.29064 18.81692 23335 ft 480 kts 154°
2026-05-04 11:45 40.26032 18.83526 22394 ft 479 kts 154°
2026-05-04 11:45 40.23009 18.85346 21477 ft 477 kts 154°
2026-05-04 11:45 40.20003 18.87149 20709 ft 473 kts 154°
2026-05-04 11:45 40.17026 18.88932 19970 ft 468 kts 154°
2026-05-04 11:46 40.14077 18.90694 19244 ft 463 kts 154°
2026-05-04 11:46 40.11162 18.92433 18641 ft 456 kts 154°
2026-05-04 11:46 40.08290 18.94145 17999 ft 450 kts 154°
2026-05-04 11:46 40.05465 18.95824 17340 ft 443 kts 154°
2026-05-04 11:47 40.02677 18.97474 16764 ft 435 kts 154°
2026-05-04 11:47 39.99979 18.99065 16265 ft 427 kts 154°
2026-05-04 11:47 39.97288 19.00646 15762 ft 419 kts 154°
2026-05-04 11:47 39.94648 19.02189 15309 ft 411 kts 154°
2026-05-04 11:48 39.92068 19.03690 14945 ft 401 kts 154°
2026-05-04 11:48 39.89547 19.05150 14578 ft 392 kts 154°
2026-05-04 11:48 39.87077 19.06576 14219 ft 384 kts 154°
2026-05-04 11:48 39.84688 19.07949 13862 ft 377 kts 154°
2026-05-04 11:49 39.82304 19.09314 13454 ft 370 kts 155°
2026-05-04 11:49 39.79964 19.10653 13059 ft 363 kts 155°
2026-05-04 11:49 39.77665 19.11968 12669 ft 358 kts 155°
2026-05-04 11:49 39.75405 19.13260 12282 ft 352 kts 155°
2026-05-04 11:50 39.73180 19.14534 11902 ft 347 kts 155°
2026-05-04 11:50 39.70984 19.15793 11536 ft 342 kts 155°
2026-05-04 11:50 39.68828 19.17031 11297 ft 333 kts 155°
2026-05-04 11:50 39.66765 19.18215 11110 ft 323 kts 155°
2026-05-04 11:51 39.64748 19.19372 10966 ft 312 kts 155°
2026-05-04 11:51 39.62775 19.20503 10653 ft 308 kts 155°
2026-05-04 11:51 39.60815 19.21628 10283 ft 307 kts 155°
2026-05-04 11:51 39.58868 19.22747 9934 ft 305 kts 155°
2026-05-04 11:52 39.56932 19.23863 9541 ft 303 kts 155°
2026-05-04 11:52 39.55008 19.24975 9143 ft 302 kts 155°
2026-05-04 11:52 39.53095 19.26084 8770 ft 300 kts 155°
2026-05-04 11:52 39.51205 19.27183 8485 ft 295 kts 155°
2026-05-04 11:53 39.49345 19.28267 8224 ft 290 kts 155°
2026-05-04 11:53 39.47521 19.29331 7965 ft 285 kts 155°
2026-05-04 11:53 39.45728 19.30380 7708 ft 280 kts 155°
2026-05-04 11:53 39.43968 19.31413 7454 ft 276 kts 155°
2026-05-04 11:55 39.37640 19.44107 5960 ft 263 kts 105°
2026-05-04 11:55 39.37091 19.46358 5654 ft 261 kts 105°
2026-05-04 11:56 39.36552 19.48596 5328 ft 260 kts 105°
2026-05-04 11:56 39.36020 19.50827 5010 ft 259 kts 105°
2026-05-04 11:56 39.35503 19.53016 4798 ft 254 kts 105°
2026-05-04 11:56 39.34999 19.55157 4662 ft 245 kts 105°
2026-05-04 11:57 39.34509 19.57250 4381 ft 243 kts 105°
2026-05-04 11:57 39.34024 19.59340 4073 ft 242 kts 105°
2026-05-04 11:57 39.33547 19.61420 3804 ft 240 kts 105°
2026-05-04 11:57 39.33078 19.63483 3554 ft 238 kts 105°
2026-05-04 11:58 39.32616 19.65536 3309 ft 238 kts 105°
2026-05-04 11:58 39.32154 19.67596 3076 ft 237 kts 105°
2026-05-04 11:58 39.31853 19.68950 3032 ft 237 kts 105°
2026-05-04 11:58 39.31396 19.71015 3005 ft 240 kts 104°
2026-05-04 11:59 39.30792 19.73742 2987 ft 237 kts 104°
2026-05-04 11:59 39.30340 19.75788 2987 ft 237 kts 104°
2026-05-04 11:59 39.30039 19.77146 2986 ft 237 kts 105°
2026-05-04 11:59 39.29584 19.79201 2995 ft 238 kts 105°
2026-05-04 12:00 39.29128 19.81258 2993 ft 239 kts 105°
2026-05-04 12:00 39.28670 19.83323 2994 ft 239 kts 105°
2026-05-04 12:00 39.28213 19.85388 2990 ft 239 kts 104°
2026-05-04 12:00 39.27755 19.87455 2984 ft 239 kts 104°
2026-05-04 12:01 39.27300 19.89505 2981 ft 234 kts 104°
2026-05-04 12:01 39.26861 19.91478 2969 ft 228 kts 104°
2026-05-04 12:02 39.24240 20.03169 3005 ft 228 kts 104°
2026-05-04 12:03 39.24122 20.05176 2985 ft 225 kts 71°
2026-05-04 12:03 39.24984 20.06827 2991 ft 227 kts 32°
2026-05-04 12:03 39.26428 20.07451 3017 ft 223 kts
2026-05-04 12:03 39.27989 20.07673 3000 ft 226 kts
2026-05-04 12:04 39.29549 20.07897 2990 ft 225 kts
2026-05-04 12:04 39.31112 20.08121 2989 ft 225 kts
2026-05-04 12:04 39.32669 20.08343 2974 ft 225 kts
2026-05-04 12:04 39.34210 20.08294 2955 ft 219 kts 339°
2026-05-04 12:05 39.35337 20.07093 2979 ft 213 kts 297°
2026-05-04 12:05 39.35623 20.05233 3019 ft 214 kts 274°
2026-05-04 12:05 39.35898 20.03329 2965 ft 217 kts 300°
2026-05-04 12:05 39.36960 20.02048 3015 ft 207 kts 330°
2026-05-04 12:06 39.38181 20.01143 2975 ft 198 kts 328°
2026-05-04 12:06 39.39323 20.00227 2974 ft 194 kts 327°
2026-05-04 12:06 39.40459 19.99299 2973 ft 191 kts 327°
2026-05-04 12:06 39.41555 19.98384 3012 ft 185 kts 327°
2026-05-04 12:07 39.42738 19.97695 2992 ft 185 kts 343°
2026-05-04 12:07 39.43969 19.97274 2933 ft 184 kts 342°
2026-05-04 12:07 39.45179 19.96766 2780 ft 181 kts 341°
2026-05-04 12:07 39.46404 19.96281 2607 ft 187 kts 341°
2026-05-04 12:08 39.47653 19.95804 2360 ft 185 kts 343°
2026-05-04 12:08 39.48862 19.95360 2121 ft 180 kts 342°
2026-05-04 12:08 39.50055 19.94916 1883 ft 178 kts 342°
2026-05-04 12:08 39.51224 19.94479 1649 ft 170 kts 342°
2026-05-04 12:09 39.52337 19.94062 1460 ft 158 kts 341°
2026-05-04 12:09 39.53347 19.93681 1273 ft 152 kts 341°
2026-05-04 12:09 39.54360 19.93302 1040 ft 149 kts 341°
2026-05-04 12:09 39.55336 19.92934 854 ft 147 kts 343°
2026-05-04 12:10 39.56357 19.92525 675 ft 154 kts 341°
2026-05-04 12:10 39.57333 19.92058 456 ft 149 kts 341°
2026-05-04 12:10 39.58342 19.91688 239 ft 153 kts 349°
2026-05-04 12:10 39.59394 19.91418 38 ft 149 kts 351°
2026-05-04 12:11 39.60293 19.91189 19 ft 106 kts 349°
2026-05-04 12:11 39.60798 19.91056 19 ft 44 kts 349°
2026-05-04 12:11 39.60985 19.91009 18 ft 14 kts 349°
2026-05-04 12:11 39.61047 19.91069 18 ft 11 kts 55°
2026-05-04 12:12 39.61039 19.91128 18 ft 7 kts 162°
2026-05-04 12:12 39.60994 19.91139 19 ft 6 kts 168°
2026-05-04 12:12 39.60967 19.91146 20 ft 3 kts 168°
2026-05-04 12:12 39.60950 19.91151 18 ft 3 kts 169°
2026-05-04 12:13 39.60932 19.91155 18 ft 3 kts 168°
2026-05-04 12:14 39.60832 19.91319 17 ft 0 kts 79°